When you browse on this site, cookies collect data to enhance your experience and personalize the content and advertising you see.
Visit our Privacy Policy to learn more. By continuing to use the site, you agree to this use of cookies and data.
  • In United Kingdom
  • List of Countries
  • For 7 days
  • Water Temperature
  • Weather Map
  • Weather Widgets
  • user-avatar
    Login

    Hourly Weather Abercanaid

    Today, 19 November, Tuesday

    Time Temperature Precipitation Wind Pressure Humidity
    00:00 +3°C° 0 mm 1 mps 737 mmHg 91%
    01:00 +4°C° 0 mm 1 mps 737 mmHg 91%
    02:00 +4°C° 0 mm 1 mps 736 mmHg 92%
    03:00 +4°C° 0 mm 1 mps 736 mmHg 92%
    04:00 +4°C° 0 mm 1 mps 736 mmHg 93%
    05:00 +3°C° 0 mm 1 mps 736 mmHg 93%
    06:00 +2°C° 0 mm 2 mps 735 mmHg 94%
    07:00 +2°C° 0 mm 2 mps 735 mmHg 94%
    08:00 +3°C° 0 mm 2 mps 735 mmHg 94%
    09:00 +3°C° 0 mm 2 mps 735 mmHg 94%
    10:00 +4°C° 0 mm 2 mps 735 mmHg 92%
    11:00 +4°C° 0 mm 3 mps 735 mmHg 91%
    12:00 +5°C° 0 mm 3 mps 735 mmHg 89%
    13:00 +5°C° 0 mm 3 mps 734 mmHg 89%
    14:00 +6°C° 0 mm 4 mps 734 mmHg 89%
    15:00 +6°C° 0 mm 4 mps 734 mmHg 89%
    16:00 +6°C° 0.1 mm 4 mps 734 mmHg 91%
    17:00 +5°C° 0.1 mm 4 mps 734 mmHg 92%
    18:00 +5°C° 0.1 mm 4 mps 734 mmHg 93%
    19:00 +5°C° 0 mm 4 mps 733 mmHg 93%
    20:00 +5°C° 0 mm 5 mps 733 mmHg 93%
    21:00 +3°C° 0 mm 5 mps 733 mmHg 94%
    22:00 +5°C° 0.1 mm 5 mps 733 mmHg 93%
    23:00 +5°C° 0.1 mm 5 mps 733 mmHg 93%

    Tomorrow, 20 November, Wednesday

    Time Temperature Precipitation Wind Pressure Humidity
    00:00 +5°C° 0.1 mm 5 mps 733 mmHg 93%
    01:00 +5°C° 0.1 mm 5 mps 733 mmHg 92%
    02:00 +5°C° 0.1 mm 5 mps 732 mmHg 92%
    03:00 +5°C° 0.1 mm 5 mps 732 mmHg 92%
    04:00 +4°C° 0 mm 6 mps 732 mmHg 92%
    05:00 +4°C° 0 mm 6 mps 732 mmHg 92%
    06:00 +4°C° 0 mm 6 mps 732 mmHg 92%
    07:00 +4°C° 0 mm 6 mps 732 mmHg 91%
    08:00 +4°C° 0 mm 7 mps 732 mmHg 91%
    09:00 +4°C° 0 mm 7 mps 732 mmHg 91%
    10:00 +4°C° 0 mm 7 mps 731 mmHg 88%
    11:00 +2°C° 0 mm 8 mps 731 mmHg 86%
    12:00 +2°C° 0 mm 8 mps 731 mmHg 83%
    13:00 +2°C° 0 mm 8 mps 730 mmHg 83%
    14:00 +2°C° 0 mm 8 mps 730 mmHg 82%
    15:00 +2°C° 0 mm 8 mps 730 mmHg 82%
    16:00 +2°C° 0 mm 8 mps 729 mmHg 83%
    17:00 +2°C° 0 mm 7 mps 729 mmHg 85%
    18:00 +2°C° 0 mm 7 mps 729 mmHg 87%
    19:00 +2°C° 0 mm 7 mps 729 mmHg 87%
    20:00 +1°C° 0 mm 6 mps 729 mmHg 88%
    21:00 +1°C° 0 mm 6 mps 728 mmHg 89%
    22:00 +1°C° 0 mm 6 mps 728 mmHg 89%
    23:00 +1°C° 0 mm 6 mps 728 mmHg 89%

    Day after tomorrow, 21 November, Thursday

    Time Temperature Precipitation Wind Pressure Humidity
    00:00 +2°C° 0 mm 6 mps 728 mmHg 90%
    01:00 +2°C° 0 mm 6 mps 727 mmHg 90%
    02:00 +2°C° 0 mm 6 mps 726 mmHg 90%
    03:00 +2°C° 0 mm 6 mps 726 mmHg 91%
    04:00 +2°C° 0 mm 6 mps 726 mmHg 91%
    05:00 +2°C° 0 mm 7 mps 725 mmHg 91%
    06:00 +2°C° 0 mm 7 mps 725 mmHg 91%
    07:00 +2°C° 0 mm 7 mps 725 mmHg 91%
    08:00 +3°C° 0 mm 7 mps 725 mmHg 91%
    09:00 +3°C° 0 mm 7 mps 725 mmHg 91%
    10:00 +3°C° 0.1 mm 7 mps 724 mmHg 91%
    11:00 +4°C° 0.1 mm 7 mps 724 mmHg 91%
    12:00 +4°C° 0.1 mm 7 mps 724 mmHg 90%
    13:00 +4°C° 0.7 mm 7 mps 723 mmHg 92%
    14:00 +4°C° 0.7 mm 6 mps 723 mmHg 93%
    15:00 +4°C° 0.7 mm 6 mps 722 mmHg 95%
    16:00 +5°C° 0.8 mm 5 mps 722 mmHg 95%
    17:00 +5°C° 0.8 mm 4 mps 722 mmHg 95%
    18:00 +5°C° 0.8 mm 3 mps 722 mmHg 95%
    19:00 +5°C° 0.9 mm 3 mps 721 mmHg 95%
    20:00 +5°C° 0.9 mm 3 mps 721 mmHg 95%
    21:00 +6°C° 0.9 mm 2 mps 721 mmHg 96%
    22:00 +5°C° 0.2 mm 2 mps 721 mmHg 95%
    23:00 +5°C° 0.2 mm 2 mps 721 mmHg 95%

    22 November, Friday

    Time Temperature Precipitation Wind Pressure Humidity
    00:00 +4°C° 0.2 mm 2 mps 720 mmHg 95%
    01:00 +4°C° 0 mm 2 mps 720 mmHg 95%
    02:00 +4°C° 0 mm 1 mps 720 mmHg 96%
    03:00 +4°C° 0 mm 1 mps 720 mmHg 96%
    04:00 +4°C° 0 mm 1 mps 720 mmHg 96%
    05:00 +4°C° 0 mm 1 mps 721 mmHg 96%
    06:00 +4°C° 0 mm 1 mps 721 mmHg 96%
    07:00 +4°C° 0.1 mm 2 mps 721 mmHg 96%
    08:00 +4°C° 0.1 mm 2 mps 722 mmHg 95%
    09:00 +5°C° 0.1 mm 2 mps 722 mmHg 95%
    10:00 +4°C° 0.2 mm 3 mps 722 mmHg 93%
    11:00 +5°C° 0.2 mm 3 mps 723 mmHg 91%
    12:00 +6°C° 0.2 mm 4 mps 723 mmHg 89%
    13:00 +7°C° 0.1 mm 3 mps 723 mmHg 89%
    14:00 +7°C° 0.1 mm 3 mps 723 mmHg 89%
    15:00 +6°C° 0.1 mm 2 mps 723 mmHg 89%
    16:00 +6°C° 0 mm 2 mps 723 mmHg 90%
    17:00 +5°C° 0 mm 2 mps 724 mmHg 91%
    18:00 +4°C° 0 mm 2 mps 724 mmHg 92%
    19:00 +5°C° 0.1 mm 2 mps 724 mmHg 93%
    20:00 +4°C° 0.1 mm 3 mps 723 mmHg 94%
    21:00 +4°C° 0.1 mm 3 mps 723 mmHg 94%
    22:00 +4°C° 1.2 mm 3 mps 723 mmHg 95%
    23:00 +4°C° 1.2 mm 4 mps 723 mmHg 95%

    23 November, Saturday

    Time Temperature Precipitation Wind Pressure Humidity
    00:00 +3°C° 1.2 mm 4 mps 723 mmHg 96%
    01:00 +4°C° 0.6 mm 4 mps 723 mmHg 96%
    02:00 +4°C° 0.6 mm 4 mps 723 mmHg 96%
    03:00 +5°C° 0.6 mm 4 mps 722 mmHg 96%
    04:00 +5°C° 1 mm 4 mps 723 mmHg 96%
    05:00 +5°C° 1 mm 4 mps 723 mmHg 96%
    06:00 +5°C° 1 mm 4 mps 723 mmHg 96%
    07:00 +5°C° 0.4 mm 4 mps 724 mmHg 96%
    08:00 +5°C° 0.4 mm 3 mps 724 mmHg 96%
    09:00 +5°C° 0.4 mm 3 mps 724 mmHg 96%
    10:00 +5°C° 0 mm 3 mps 725 mmHg 94%
    11:00 +7°C° 0 mm 3 mps 725 mmHg 92%
    12:00 +7°C° 0 mm 3 mps 726 mmHg 91%
    13:00 +7°C° 0 mm 2 mps 726 mmHg 91%
    14:00 +7°C° 0 mm 2 mps 726 mmHg 91%
    15:00 +7°C° 0 mm 2 mps 727 mmHg 91%
    16:00 +7°C° 0 mm 2 mps 727 mmHg 92%
    17:00 +7°C° 0 mm 1 mps 728 mmHg 93%
    18:00 +6°C° 0 mm 1 mps 728 mmHg 94%
    19:00 +6°C° 0 mm 1 mps 729 mmHg 94%
    20:00 +6°C° 0 mm 1 mps 729 mmHg 93%
    21:00 +5°C° 0 mm 0 mps 730 mmHg 92%
    22:00 +6°C° 0 mm 1 mps 730 mmHg 92%
    23:00 +5°C° 0 mm 1 mps 730 mmHg 93%

    24 November, Sunday

    Time Temperature Precipitation Wind Pressure Humidity
    00:00 +5°C° 0 mm 1 mps 730 mmHg 93%
    01:00 +5°C° 0 mm 1 mps 730 mmHg 93%
    02:00 +6°C° 0 mm 1 mps 730 mmHg 94%
    03:00 +6°C° 0 mm 1 mps 730 mmHg 95%
    04:00 +5°C° 0 mm 2 mps 730 mmHg 95%
    05:00 +5°C° 0 mm 2 mps 730 mmHg 95%
    06:00 +5°C° 0 mm 3 mps 730 mmHg 96%
    07:00 +5°C° 0.4 mm 4 mps 729 mmHg 95%
    08:00 +5°C° 0.4 mm 5 mps 729 mmHg 94%
    09:00 +4°C° 0.4 mm 6 mps 729 mmHg 92%
    10:00 +4°C° 1.5 mm 7 mps 728 mmHg 93%
    11:00 +5°C° 1.5 mm 8 mps 727 mmHg 94%
    12:00 +6°C° 1.5 mm 8 mps 726 mmHg 95%
    13:00 +7°C° 1.8 mm 8 mps 726 mmHg 96%
    14:00 +9°C° 1.8 mm 7 mps 725 mmHg 97%
    15:00 +10°C° 1.8 mm 7 mps 725 mmHg 97%
    16:00 +10°C° 2.2 mm 7 mps 725 mmHg 97%
    17:00 +10°C° 2.2 mm 7 mps 724 mmHg 97%
    18:00 +10°C° 2.2 mm 6 mps 724 mmHg 97%
    19:00 +10°C° 3.6 mm 7 mps 724 mmHg 97%
    20:00 +11°C° 3.6 mm 8 mps 724 mmHg 96%
    21:00 +11°C° 3.6 mm 8 mps 723 mmHg 96%
    22:00 +11°C° 3 mm 9 mps 723 mmHg 96%
    23:00 +11°C° 3 mm 9 mps 722 mmHg 96%
    Show more